Tracking 28920 objects as of 24-May-2024
HD Live streaming from Space Station
objects crossing your sky now

COSMOS 2227

Track COSMOS 2227 now!
10-day predictions
COSMOS 2227 is classified as:


NORAD ID: 22284
Int'l Code: 1992-093A
Perigee: 839.1 km
Apogee: 869.7 km
Inclination: 71.0 °
Period: 101.9 minutes
Semi major axis: 7225 km
RCS: 7.0075 m2 (large)
Launch date: December 25, 1992
Source: Commonwealth of Independent States (former USSR) (CIS)
Launch site: TYURATAM MISSILE AND SPACE COMPLEX (TTMTR)
Your satellite tracking list
Your tracking list is empty




NASA's NSSDC Master Catalog

Two Line Element Set (TLE):
1 22284U 92093A   24144.86933251  .00000008  00000-0  29480-4 0  9998
2 22284  70.9801 325.4857 0021227 300.4165  59.4858 14.13547132620224
Source of the keplerian elements: AFSPC